Regional Weather Roundup
Issued by NWS

Home | Current Version | Previous Version | Graphics & Text | Print | Product List | Glossary On
Versions: 1 2 3 4 5 6 7 8 9 10 11 12 13 14 15 16 17 18 19 20 21 22 23 24 25 26 27 28 29 30 31 32 33 34 35 36 37 38 39 40 41 42 43 44 45 46 47 48 49 50
000
ASUS45 KCYS 241410
RWRWY

WYOMING REGIONAL WEATHER ROUNDUP
NATIONAL WEATHER SERVICE CHEYENNE WY
800 AM MDT FRI MAR 24 2017

NOTE:  "FAIR" INDICATES FEW OR NO CLOUDS BELOW 12,000 FEET
WITH NO SIGNIFICANT WEATHER AND/OR OBSTRUCTIONS TO VISIBILITY.

WYZ001-241500-
YELLOWSTONE NATIONAL PARK

CITY           SKY/WX    TMP DP  RH WIND       PRES   REMARKS
LK YELLOWSTONE   N/A     16  14  92 CALM      30.18R
W YELLOWSTONE  NOT AVBL

$$
WYZ002>013-054>058-071-098>099-241500-
NORTHERN WYOMING

CITY           SKY/WX    TMP DP  RH WIND       PRES   REMARKS
JACKSON        CLEAR     21  21 100 CALM      30.18R
CODY           FAIR      38  27  64 SW13      30.12R WCI  30
GREYBULL       FAIR      32  30  92 SE6       30.13S WCI  26
WORLAND        FAIR      35  33  92 S12       30.13R WCI  27
SHERIDAN       FAIR      32  28  85 S3        30.11R
BUFFALO        FAIR      39  28  64 W7        30.12R WCI  34
GILLETTE       FAIR      36  34  92 W5        30.11R WCI  32
HULETT         FAIR      34  32  93 S7        30.12R WCI  28
NEWCASTLE      FAIR      34  32  93 NW7       30.11R WCI  28

$$
WYZ014>020-022>026-101>103-241500-
CENTRAL WYOMING

CITY           SKY/WX    TMP DP  RH WIND       PRES   REMARKS
BIG PINEY      FAIR      25  22  88 E6        30.20R WCI  18
PINEDALE       FAIR      21  21 100 NW3       30.20R
DUBOIS         FAIR      23  19  86 NW9       30.16R WCI  13
LANDER         FAIR      33  29  85 VRB3      30.14R
RIVERTON       CLOUDY    34  34 100 CALM      30.15R
CASPER         CLOUDY    34  32  92 SW3       30.16R
DOUGLAS        FAIR      36  33  89 NW15      30.15R WCI  27

$$
WYZ021-027>030-104>119-241500-
SOUTHERN WYOMING

CITY           SKY/WX    TMP DP  RH WIND       PRES   REMARKS
EVANSTON       FAIR      28  24  85 SE6       30.19R WCI  22
FORT BRIDGER   FAIR      32  31  95 W9        30.22R WCI  24
ROCK SPRINGS   CLOUDY    34  31  88 S5        30.19R WCI  30
DIXON            N/A     35  29  80 N9        30.18R WCI  27
RAWLINS        CLOUDY    36  28  73 N14       30.17R WCI  27
SARATOGA       CLOUDY    34  30  86 NW13      30.17R WCI  25
LARAMIE        CLOUDY    31  28  89 N8        30.12R WCI  23
CHEYENNE       CLOUDY    34  31  88 N18       30.07R WCI  23
TORRINGTON     CLOUDY    42  36  79 NW6       30.09R
PINE BLUFFS    CLOUDY    36  34  93 N23G32    30.05R WCI  24

$$



USA.gov is the U.S. government's official web portal to all federal, state and local government web resources and services.